Newberry, MI

4:31 PM EDT on August 27, 2016 (GMT -0400)
Luce County

Weather History for KERY - November, 2012

Change the Weather History Date:

Tuesday, November 13, 2012

  Actual Average Record
Temperature  
Mean Temperature 31 °F -  
Max Temperature 39 °F 37 °F 56 °F (1945)
Min Temperature 23 °F 24 °F 2 °F (1911)
Degree Days  
Heating Degree Days 34    
Moisture  
Dew Point 23 °F    
Average Humidity 78    
Maximum Humidity 93    
Minimum Humidity 48    
Precipitation  
Precipitation 0.00 in - - ()
Sea Level Pressure  
Sea Level Pressure 30.29 in    
Wind  
Wind Speed 12 mph (SW)    
Max Wind Speed 16 mph    
Max Gust Speed 24 mph    
Visibility 9 miles    
Events Snow    
Averages and records for this station are not official NWS values.
T = Trace of Precipitation, MM = Missing Value Source: NWS Daily Summary

Daily Weather History Graph

Daily Weather History Graph

Search for Another Location

Airport or City:

Trip Planner

Search our weather history database for the weather conditions in past years. The results will help you decide how hot, cold, wet, or windy it might be!

Date:

Astronomy

Nov. 13, 2012 Rise Set
Actual Time 7:41 AM EST 5:10 PM EST
Civil Twilight 7:08 AM EST 5:43 PM EST
Nautical Twilight 6:32 AM EST 6:19 PM EST
Astronomical Twilight 5:56 AM EST 6:55 PM EST
Moon 7:18 AM EST (11/13) 5:01 PM EST (11/13)
Length of Visible Light 10h 34m
Length of Day
9h 29m
Waning Crescent, 0% of the Moon is Illuminated
Nov 13
Waning Crescent
Nov 13
New
Nov 20
First Quarter
Nov 28
Full
Dec 6
Last Quarter

Hourly Weather History & Observations

Time (EST) Temp. Windchill Dew Point Humidity Pressure Visibility Wind Dir Wind Speed Gust Speed Precip Events Conditions
12:14 AM 24.8 °F 12.4 °F 17.6 °F 74% 30.06 in 10.0 mi WSW 15.0 mph 23.0 mph N/A   Mostly Cloudy
12:35 AM 24.8 °F 11.9 °F 17.6 °F 74% 30.07 in 10.0 mi WSW 16.1 mph 21.9 mph N/A   Scattered Clouds
12:54 AM 24.8 °F 12.4 °F 17.6 °F 74% 30.08 in 10.0 mi WSW 15.0 mph 24.2 mph N/A   Clear
1:15 AM 24.8 °F 11.9 °F 17.6 °F 74% 30.09 in 10.0 mi WSW 16.1 mph - N/A   Clear
1:34 AM 23.0 °F 9.6 °F 17.6 °F 80% 30.09 in 10.0 mi WSW 16.1 mph 21.9 mph N/A   Clear
1:54 AM 23.0 °F 10.1 °F 17.6 °F 80% 30.10 in 10.0 mi WSW 15.0 mph 23.0 mph N/A   Clear
2:15 AM 23.0 °F 10.1 °F 17.6 °F 80% 30.10 in 10.0 mi WSW 15.0 mph 19.6 mph N/A   Clear
2:34 AM 23.0 °F 10.6 °F 17.6 °F 80% 30.11 in 10.0 mi WSW 13.8 mph - N/A   Clear
2:55 AM 23.0 °F 9.6 °F 17.6 °F 80% 30.12 in 10.0 mi WSW 16.1 mph 19.6 mph N/A   Clear
3:14 AM 23.0 °F 10.1 °F 17.6 °F 80% 30.13 in 10.0 mi WSW 15.0 mph - N/A   Clear
3:54 AM 23.0 °F 10.6 °F 17.6 °F 80% 30.14 in 10.0 mi WSW 13.8 mph 18.4 mph N/A   Clear
4:15 AM 23.0 °F 10.6 °F 19.4 °F 86% 30.15 in 10.0 mi WSW 13.8 mph 18.4 mph N/A   Clear
4:34 AM 24.8 °F 12.9 °F 19.4 °F 80% 30.15 in 10.0 mi WSW 13.8 mph - N/A   Mostly Cloudy
4:55 AM 24.8 °F 11.9 °F 19.4 °F 80% 30.16 in 10.0 mi WSW 16.1 mph 20.7 mph N/A   Mostly Cloudy
5:14 AM 24.8 °F 12.9 °F 19.4 °F 80% 30.17 in 10.0 mi WSW 13.8 mph 20.7 mph N/A   Scattered Clouds
5:35 AM 24.8 °F 12.4 °F 19.4 °F 80% 30.18 in 10.0 mi WSW 15.0 mph - N/A   Mostly Cloudy
5:55 AM 24.8 °F 14.0 °F 19.4 °F 80% 30.19 in 10.0 mi WSW 11.5 mph - N/A   Overcast
6:14 AM 24.8 °F 14.0 °F 21.2 °F 86% 30.20 in 10.0 mi WSW 11.5 mph 16.1 mph N/A   Overcast
6:35 AM 26.6 °F 15.7 °F 21.2 °F 80% 30.21 in 5.0 mi WSW 12.7 mph - N/A Snow Snow
7:15 AM 26.6 °F 16.2 °F 21.2 °F 80% 30.23 in 2.0 mi WSW 11.5 mph 17.3 mph N/A Snow Light Snow
7:35 AM 24.8 °F 13.4 °F 21.2 °F 86% 30.24 in 1.0 mi WSW 12.7 mph - N/A Snow Snow
7:54 AM 24.8 °F 14.6 °F 23.0 °F 93% 30.25 in 1.0 mi WSW 10.4 mph 18.4 mph N/A Snow Light Snow
8:15 AM 26.6 °F 16.8 °F 23.0 °F 86% 30.25 in 2.5 mi WSW 10.4 mph - N/A Snow Light Snow
8:34 AM 24.8 °F 14.6 °F 23.0 °F 93% 30.26 in 5.0 mi WSW 10.4 mph - N/A Snow Light Snow
8:55 AM 26.6 °F 16.8 °F 24.8 °F 93% 30.27 in 1.8 mi West 10.4 mph - N/A Snow Light Snow
9:15 AM 28.4 °F 21.2 °F 24.8 °F 86% 30.29 in 10.0 mi WSW 6.9 mph - N/A Snow Light Snow
9:34 AM 28.4 °F 19.1 °F 24.8 °F 86% 30.29 in 10.0 mi WSW 10.4 mph - N/A   Scattered Clouds
9:55 AM 30.2 °F 20.8 °F 24.8 °F 80% 30.30 in 10.0 mi West 11.5 mph - N/A   Clear
10:15 AM 30.2 °F 21.9 °F 24.8 °F 80% 30.31 in 10.0 mi WSW 9.2 mph - N/A   Clear
10:34 AM 32.0 °F 23.6 °F 26.6 °F 80% 30.32 in 10.0 mi West 10.4 mph - N/A   Clear
10:55 AM 33.8 °F 25.8 °F 28.4 °F 81% 30.32 in 10.0 mi WNW 10.4 mph - N/A   Clear
11:14 AM 33.8 °F 26.4 °F 28.4 °F 81% 30.33 in 10.0 mi West 9.2 mph - N/A   Clear
11:34 AM 35.6 °F 27.1 °F 28.4 °F 75% 30.33 in 10.0 mi West 12.7 mph 16.1 mph N/A   Clear
11:55 AM 37.4 °F 29.8 °F 28.4 °F 70% 30.33 in 10.0 mi West 11.5 mph - N/A   Clear
12:14 PM 37.4 °F 30.8 °F 28.4 °F 70% 30.33 in 10.0 mi WNW 9.2 mph - N/A   Clear
12:35 PM 37.4 °F 32.1 °F 28.4 °F 70% 30.33 in 10.0 mi West 6.9 mph - N/A   Scattered Clouds
12:55 PM 37.4 °F 30.8 °F 28.4 °F 70% 30.33 in 10.0 mi SW 9.2 mph - N/A   Scattered Clouds
1:14 PM 37.4 °F 33.8 °F 28.4 °F 70% 30.33 in 10.0 mi West 4.6 mph - N/A   Scattered Clouds
1:55 PM 37.4 °F 30.3 °F 24.8 °F 60% 30.33 in 10.0 mi WSW 10.4 mph - N/A   Scattered Clouds
2:14 PM 37.4 °F 30.8 °F 24.8 °F 60% 30.33 in 10.0 mi WSW 9.2 mph - N/A   Clear
2:35 PM 39.2 °F 33.0 °F 24.8 °F 56% 30.34 in 10.0 mi SSW 9.2 mph - N/A   Clear
2:54 PM 37.4 °F 29.8 °F 21.2 °F 52% 30.34 in 10.0 mi SW 11.5 mph - N/A   Clear
3:14 PM 37.4 °F 32.1 °F 21.2 °F 52% 30.34 in 10.0 mi SW 6.9 mph - N/A   Clear
3:35 PM 37.4 °F 29.8 °F 19.4 °F 48% 30.34 in 10.0 mi SSW 11.5 mph 17.3 mph N/A   Clear
3:54 PM 37.4 °F 28.9 °F 21.2 °F 52% 30.35 in 10.0 mi SSW 13.8 mph - N/A   Clear
4:15 PM 35.6 °F 27.5 °F 21.2 °F 56% 30.35 in 10.0 mi SW 11.5 mph - N/A   Clear
4:35 PM 35.6 °F 28.0 °F 21.2 °F 56% 30.36 in 10.0 mi South 10.4 mph - N/A   Clear
4:54 PM 33.8 °F 25.8 °F 23.0 °F 65% 30.36 in 10.0 mi South 10.4 mph - N/A   Clear
5:15 PM 32.0 °F 24.2 °F 23.0 °F 69% 30.37 in 10.0 mi SSW 9.2 mph - N/A   Clear
5:34 PM 30.2 °F 24.3 °F 24.8 °F 80% 30.38 in 10.0 mi South 5.8 mph - N/A   Clear
5:54 PM 30.2 °F 25.4 °F 24.8 °F 80% 30.38 in 10.0 mi South 4.6 mph - N/A   Clear
6:15 PM 28.4 °F 23.3 °F 24.8 °F 86% 30.39 in 10.0 mi SSW 4.6 mph - N/A   Clear
6:34 PM 28.4 °F 23.3 °F 24.8 °F 86% 30.39 in 10.0 mi SSW 4.6 mph - N/A   Clear
6:55 PM 28.4 °F 24.6 °F 24.8 °F 86% 30.39 in 10.0 mi SSW 3.5 mph - N/A   Clear
7:15 PM 30.2 °F 25.4 °F 24.8 °F 80% 30.40 in 10.0 mi SSW 4.6 mph - N/A   Clear
7:34 PM 28.4 °F 23.3 °F 24.8 °F 86% 30.40 in 10.0 mi SSW 4.6 mph - N/A   Clear
7:55 PM 28.4 °F 24.6 °F 24.8 °F 86% 30.40 in 10.0 mi South 3.5 mph - N/A   Clear
8:14 PM 28.4 °F 24.6 °F 24.8 °F 86% 30.40 in 10.0 mi South 3.5 mph - N/A   Clear
8:34 PM 28.4 °F 24.6 °F 24.8 °F 86% 30.40 in 10.0 mi SSW 3.5 mph - N/A   Scattered Clouds
8:55 PM 28.4 °F 24.6 °F 24.8 °F 86% 30.40 in 10.0 mi SSW 3.5 mph - N/A   Scattered Clouds
9:14 PM 28.4 °F 24.6 °F 24.8 °F 86% 30.40 in 10.0 mi SSW 3.5 mph - N/A   Clear
9:35 PM 28.4 °F 23.3 °F 24.8 °F 86% 30.40 in 10.0 mi South 4.6 mph - N/A   Clear
9:54 PM 26.6 °F 20.0 °F 23.0 °F 86% 30.40 in 10.0 mi SSW 5.8 mph - N/A   Scattered Clouds
10:14 PM 28.4 °F 23.3 °F 24.8 °F 86% 30.41 in 10.0 mi SSW 4.6 mph - N/A   Scattered Clouds
10:35 PM 28.4 °F 21.2 °F 24.8 °F 86% 30.41 in 10.0 mi SW 6.9 mph - N/A   Scattered Clouds
10:54 PM 28.4 °F 22.2 °F 24.8 °F 86% 30.42 in 10.0 mi SW 5.8 mph - N/A   Scattered Clouds
11:15 PM 28.4 °F 23.3 °F 24.8 °F 86% 30.41 in 10.0 mi SSW 4.6 mph - N/A   Scattered Clouds
11:35 PM 28.4 °F 23.3 °F 24.8 °F 86% 30.41 in 10.0 mi SW 4.6 mph - N/A   Mostly Cloudy
11:54 PM 28.4 °F - 26.6 °F 93% 30.41 in 10.0 mi Calm Calm - N/A   Mostly Cloudy